EZY217U EGGP-EGAC

Flight info

Callsign EZY217U
Flight time 0h 29m
Altitude 24000
Route WAL M146 ERDUV Z198 MASOP M148 MAGEE
Aircraft A319/M-SDE3FGHIRWY/LB1

Departure

Time 2026-04-26 16:56
Airport Liverpool John Lennon Airport (EGGP)

Arrival

Time 2026-04-26 17:25
Airport George Best Belfast City Airport (EGAC)
Time Latitude Longitude Altitude Speed Heading
2026-04-26 16:32 53.33673 -2.85202 90 ft 0 kts 265°
2026-04-26 16:48 53.33675 -2.85165 90 ft 4 kts 265°
2026-04-26 16:49 53.33677 -2.85121 87 ft 4 kts 275°
2026-04-26 16:49 53.33671 -2.85078 87 ft 4 kts 299°
2026-04-26 16:49 53.33654 -2.85043 90 ft 4 kts 316°
2026-04-26 16:49 53.33640 -2.85013 88 ft 4 kts 269°
2026-04-26 16:50 53.33641 -2.84977 89 ft 0 kts 265°
2026-04-26 16:52 53.33641 -2.84978 89 ft 0 kts 265°
2026-04-26 16:52 53.33640 -2.85005 89 ft 4 kts 265°
2026-04-26 16:52 53.33616 -2.85062 87 ft 9 kts 198°
2026-04-26 16:53 53.33537 -2.85075 85 ft 14 kts 215°
2026-04-26 16:53 53.33516 -2.85263 85 ft 19 kts 265°
2026-04-26 16:53 53.33505 -2.85488 84 ft 20 kts 266°
2026-04-26 16:53 53.33494 -2.85722 86 ft 21 kts 265°
2026-04-26 16:54 53.33483 -2.85967 86 ft 21 kts 266°
2026-04-26 16:54 53.33472 -2.86219 84 ft 22 kts 265°
2026-04-26 16:54 53.33461 -2.86399 84 ft 9 kts 246°
2026-04-26 16:54 53.33390 -2.86422 72 ft 14 kts 174°
2026-04-26 16:55 53.33306 -2.86318 74 ft 18 kts 107°
2026-04-26 16:55 53.33308 -2.86196 76 ft 6 kts 85°
2026-04-26 16:55 53.33311 -2.86124 75 ft 7 kts 85°
2026-04-26 16:55 53.33332 -2.85661 82 ft 82 kts 86°
2026-04-26 16:56 53.33504 -2.82454 787 ft 153 kts 84°
2026-04-26 16:56 53.33611 -2.80642 1449 ft 164 kts 85°
2026-04-26 16:56 53.33916 -2.78673 1893 ft 189 kts 64°
2026-04-26 16:57 53.34795 -2.76885 2328 ft 213 kts 38°
2026-04-26 16:57 53.36221 -2.75925 2763 ft 239 kts
2026-04-26 16:57 53.39203 -2.78501 4235 ft 263 kts 296°
2026-04-26 16:58 53.39573 -2.81461 5300 ft 263 kts 262°
2026-04-26 16:58 53.39260 -2.83458 6015 ft 264 kts 248°
2026-04-26 16:58 53.38247 -2.90469 8391 ft 273 kts 266°
2026-04-26 16:59 53.38300 -2.93668 9389 ft 277 kts 272°
2026-04-26 16:59 53.38538 -3.00284 10867 ft 302 kts 272°
2026-04-26 17:00 53.39307 -3.07752 11589 ft 346 kts 285°
2026-04-26 17:00 53.40167 -3.15840 13072 ft 359 kts 286°
2026-04-26 17:00 53.41369 -3.19536 13849 ft 366 kts 308°
2026-04-26 17:01 53.43169 -3.22593 14596 ft 371 kts 318°
2026-04-26 17:01 53.45197 -3.25322 15296 ft 375 kts 321°
2026-04-26 17:01 53.47274 -3.28026 15992 ft 379 kts 320°
2026-04-26 17:01 53.49317 -3.30869 16682 ft 383 kts 317°
2026-04-26 17:02 53.51298 -3.33898 17368 ft 387 kts 315°
2026-04-26 17:02 53.53227 -3.37087 18051 ft 391 kts 313°
2026-04-26 17:02 53.55102 -3.40341 18699 ft 395 kts 312°
2026-04-26 17:02 53.57003 -3.43706 19289 ft 398 kts 311°
2026-04-26 17:03 53.58732 -3.47356 19879 ft 400 kts 302°
2026-04-26 17:03 53.60310 -3.51235 20477 ft 403 kts 303°
2026-04-26 17:03 53.61920 -3.55115 21065 ft 406 kts 303°
2026-04-26 17:03 53.63556 -3.59009 21632 ft 408 kts 303°
2026-04-26 17:04 53.65210 -3.62919 22187 ft 411 kts 303°
2026-04-26 17:04 53.66880 -3.66859 22750 ft 414 kts 303°
2026-04-26 17:04 53.68557 -3.70831 23299 ft 417 kts 303°
2026-04-26 17:04 53.70238 -3.74842 23802 ft 420 kts 303°
2026-04-26 17:05 53.71923 -3.78886 24152 ft 423 kts 303°
2026-04-26 17:05 53.73615 -3.82953 24250 ft 426 kts 302°
2026-04-26 17:05 53.75341 -3.87118 24274 ft 438 kts 302°
2026-04-26 17:05 53.77073 -3.91301 24272 ft 442 kts 302°
2026-04-26 17:06 53.78835 -3.95560 24274 ft 443 kts 302°
2026-04-26 17:06 53.80599 -3.99828 24271 ft 443 kts 302°
2026-04-26 17:06 53.82365 -4.04100 24272 ft 443 kts 302°
2026-04-26 17:06 53.84134 -4.08377 24272 ft 443 kts 303°
2026-04-26 17:07 53.86051 -4.12464 24267 ft 445 kts 311°
2026-04-26 17:07 53.88353 -4.16001 24269 ft 448 kts 320°
2026-04-26 17:07 53.90984 -4.18870 24270 ft 452 kts 329°
2026-04-26 17:07 53.93869 -4.21012 24292 ft 453 kts 337°
2026-04-26 17:08 53.96801 -4.22942 24299 ft 452 kts 336°
2026-04-26 17:08 53.99729 -4.24870 24297 ft 451 kts 336°
2026-04-26 17:08 54.02649 -4.26802 24296 ft 450 kts 336°
2026-04-26 17:08 54.05556 -4.28734 24295 ft 449 kts 336°
2026-04-26 17:09 54.08464 -4.30669 24291 ft 448 kts 336°
2026-04-26 17:09 54.10386 -4.31951 24288 ft 447 kts 336°
2026-04-26 17:09 54.14036 -4.35264 24280 ft 443 kts 323°
2026-04-26 17:09 54.16423 -4.38567 24266 ft 441 kts 314°
2026-04-26 17:10 54.18457 -4.42451 24275 ft 438 kts 306°
2026-04-26 17:10 54.20214 -4.46683 24201 ft 434 kts 303°
2026-04-26 17:10 54.21934 -4.50881 23154 ft 432 kts 303°
2026-04-26 17:10 54.23425 -4.55343 22110 ft 431 kts 294°
2026-04-26 17:11 54.24462 -4.60098 21343 ft 425 kts 285°
2026-04-26 17:11 54.25137 -4.64993 20564 ft 420 kts 282°
2026-04-26 17:11 54.25765 -4.69847 19803 ft 416 kts 282°
2026-04-26 17:11 54.26382 -4.74653 19065 ft 412 kts 282°
2026-04-26 17:12 54.27584 -4.84146 17607 ft 404 kts 282°
2026-04-26 17:12 54.28173 -4.88814 16956 ft 398 kts 282°
2026-04-26 17:13 54.29318 -4.97930 15749 ft 391 kts 282°
2026-04-26 17:13 54.29884 -5.02459 15168 ft 387 kts 282°
2026-04-26 17:13 54.30992 -5.11394 13983 ft 380 kts 281°
2026-04-26 17:14 54.31538 -5.15804 13340 ft 376 kts 281°
2026-04-26 17:14 54.32600 -5.24459 12045 ft 367 kts 281°
2026-04-26 17:14 54.33120 -5.28706 11427 ft 362 kts 281°
2026-04-26 17:15 54.34106 -5.36731 11146 ft 327 kts 281°
2026-04-26 17:15 54.34559 -5.40454 11021 ft 312 kts 281°
2026-04-26 17:15 54.34990 -5.44014 10900 ft 299 kts 281°
2026-04-26 17:16 54.35403 -5.47438 10759 ft 287 kts 281°
2026-04-26 17:16 54.35802 -5.50758 10505 ft 282 kts 281°
2026-04-26 17:16 54.36194 -5.54031 10283 ft 279 kts 281°
2026-04-26 17:16 54.36583 -5.57280 10118 ft 278 kts 281°
2026-04-26 17:17 54.36971 -5.60521 9989 ft 277 kts 282°
2026-04-26 17:17 54.37357 -5.63748 9861 ft 275 kts 281°
2026-04-26 17:17 54.37740 -5.66969 9445 ft 278 kts 281°
2026-04-26 17:17 54.38123 -5.70215 9101 ft 274 kts 281°
2026-04-26 17:18 54.38496 -5.73384 8767 ft 269 kts 281°
2026-04-26 17:18 54.38866 -5.76517 8373 ft 267 kts 281°
2026-04-26 17:18 54.39234 -5.79644 7852 ft 269 kts 281°
2026-04-26 17:18 54.39605 -5.82780 7213 ft 267 kts 281°
2026-04-26 17:19 54.40337 -5.89004 5783 ft 266 kts 281°
2026-04-26 17:19 54.40694 -5.92091 5027 ft 267 kts 281°
2026-04-26 17:19 54.41054 -5.95194 4485 ft 259 kts 281°
2026-04-26 17:20 54.41396 -5.98131 4254 ft 240 kts 281°
2026-04-26 17:20 54.41522 -5.99063 4112 ft 236 kts 285°
2026-04-26 17:20 54.43007 -6.02836 3765 ft 227 kts 321°
2026-04-26 17:20 54.44373 -6.04124 3682 ft 222 kts 339°
2026-04-26 17:21 54.45870 -6.04552 3531 ft 216 kts 359°
2026-04-26 17:21 54.47337 -6.04133 3318 ft 214 kts 18°
2026-04-26 17:21 54.48641 -6.02935 3057 ft 211 kts 33°
2026-04-26 17:21 54.49817 -6.01536 2815 ft 199 kts 33°
2026-04-26 17:22 54.50926 -6.00220 2529 ft 189 kts 33°
2026-04-26 17:22 54.51970 -5.98980 2278 ft 176 kts 33°
2026-04-26 17:22 54.52956 -5.97809 2048 ft 170 kts 34°
2026-04-26 17:22 54.53918 -5.96665 1820 ft 167 kts 34°
2026-04-26 17:23 54.54867 -5.95531 1607 ft 166 kts 34°
2026-04-26 17:23 54.55804 -5.94383 1418 ft 165 kts 36°
2026-04-26 17:23 54.56731 -5.93228 1208 ft 164 kts 35°
2026-04-26 17:23 54.57677 -5.92162 979 ft 160 kts 32°
2026-04-26 17:24 54.58290 -5.91469 810 ft 158 kts 35°
2026-04-26 17:24 54.59171 -5.90395 560 ft 153 kts 35°
2026-04-26 17:24 54.60045 -5.89372 326 ft 150 kts 34°
2026-04-26 17:24 54.60901 -5.88350 121 ft 148 kts 35°
2026-04-26 17:25 54.61717 -5.87367 22 ft 131 kts 34°
2026-04-26 17:25 54.62366 -5.86586 22 ft 27 kts 34°
2026-04-26 17:25 54.62455 -5.86543 21 ft 17 kts 20°
2026-04-26 17:25 54.62422 -5.86509 21 ft 13 kts 226°
2026-04-26 17:26 54.62302 -5.86662 20 ft 26 kts 214°
2026-04-26 17:26 54.62149 -5.86846 17 ft 28 kts 215°
2026-04-26 17:26 54.61986 -5.87041 16 ft 29 kts 214°
2026-04-26 17:26 54.61827 -5.87152 18 ft 23 kts 136°
2026-04-26 17:27 54.61764 -5.87008 21 ft 10 kts 140°
2026-04-26 17:27 54.61689 -5.87034 21 ft 14 kts 213°
2026-04-26 17:27 54.61593 -5.87153 21 ft 20 kts 216°
2026-04-26 17:27 54.61516 -5.87228 21 ft 7 kts 181°
2026-04-26 17:28 54.61473 -5.87197 24 ft 6 kts 155°
2026-04-26 17:28 54.61461 -5.87187 21 ft 0 kts 156°